Norwood, MA

7:25 PM EDT on March 22, 2017 (GMT -0400)
Norwood Memorial

Weather History for KOWD - October, 2011

Change the Weather History Date:

Saturday, October 22, 2011

  Actual Average Record
Temperature  
Mean Temperature 54 °F -  
Max Temperature 64 °F 57 °F 82 °F (2007)
Min Temperature 43 °F 34 °F 19 °F (2002)
Degree Days  
Heating Degree Days 12    
Growing Degree Days 4 (Base 50)    
Moisture  
Dew Point 41 °F    
Average Humidity 66    
Maximum Humidity 86    
Minimum Humidity 43    
Precipitation  
Precipitation 0.00 in - - ()
Sea Level Pressure  
Sea Level Pressure 30.00 in    
Wind  
Wind Speed 3 mph (West)    
Max Wind Speed 13 mph    
Max Gust Speed 18 mph    
Visibility 10 miles    
Events      
Averages and records for this station are not official NWS values.
T = Trace of Precipitation, MM = Missing Value Source: NWS Daily Summary

Daily Weather History Graph

Daily Weather History Graph

Search for Another Location

Airport or City:

Trip Planner

Search our weather history database for the weather conditions in past years. The results will help you decide how hot, cold, wet, or windy it might be!

Date:

Astronomy

Oct. 22, 2011 Rise Set
Actual Time 7:05 AM EDT 5:52 PM EDT
Civil Twilight 6:36 AM EDT 6:21 PM EDT
Nautical Twilight 6:03 AM EDT 6:53 PM EDT
Astronomical Twilight 5:31 AM EDT 7:26 PM EDT
Moon 1:53 AM EDT 3:13 PM EDT
Length of Visible Light 11h 44m
Length of Day
10h 47m
Waning Crescent, 24% of the Moon is Illuminated
Oct 22
Waning Crescent
Oct 26
New
Nov 2
First Quarter
Nov 10
Full
Nov 18
Last Quarter

Hourly Weather History & Observations

Time (EDT) Temp. Dew Point Humidity Pressure Visibility Wind Dir Wind Speed Gust Speed Precip Events Conditions
12:53 AM 46.9 °F 42.1 °F 83% 29.96 in 10.0 mi Calm Calm - N/A   Mostly Cloudy
1:53 AM 46.9 °F 41.0 °F 80% 29.96 in 10.0 mi West 3.5 mph - N/A   Mostly Cloudy
2:53 AM 48.0 °F 42.1 °F 80% 29.96 in 10.0 mi West 3.5 mph - N/A   Overcast
3:53 AM 48.9 °F 42.1 °F 77% 29.96 in 10.0 mi Calm Calm - N/A   Overcast
4:53 AM 50.0 °F 42.1 °F 74% 29.97 in 10.0 mi Calm Calm - N/A   Overcast
5:53 AM 50.0 °F 43.0 °F 77% 29.98 in 10.0 mi Calm Calm - N/A   Overcast
6:53 AM 48.9 °F 43.0 °F 80% 29.99 in 10.0 mi Calm Calm - N/A   Overcast
7:53 AM 50.0 °F 43.0 °F 77% 30.00 in 10.0 mi SW 3.5 mph - N/A   Overcast
8:53 AM 52.0 °F 43.0 °F 71% 30.01 in 10.0 mi SW 4.6 mph - N/A   Overcast
9:53 AM 55.9 °F 43.0 °F 62% 30.01 in 10.0 mi WSW 5.8 mph - N/A   Overcast
10:53 AM 60.1 °F 41.0 °F 49% 30.01 in 10.0 mi West 6.9 mph - N/A   Overcast
11:53 AM 61.0 °F 39.9 °F 46% 30.00 in 10.0 mi Variable 6.9 mph - N/A   Scattered Clouds
12:53 PM 62.1 °F 39.9 °F 44% 29.98 in 10.0 mi WSW 9.2 mph 17.3 mph N/A   Overcast
1:53 PM 63.0 °F 39.9 °F 43% 29.97 in 10.0 mi WNW 12.7 mph 18.4 mph N/A   Mostly Cloudy
2:53 PM 60.1 °F 39.0 °F 46% 29.98 in 10.0 mi WNW 12.7 mph 16.1 mph N/A   Overcast
3:53 PM 59.0 °F 39.0 °F 48% 29.99 in 10.0 mi WNW 8.1 mph - N/A   Overcast
4:53 PM 57.9 °F 39.9 °F 51% 29.99 in 10.0 mi WNW 5.8 mph - N/A   Overcast
5:53 PM 55.9 °F 39.9 °F 55% 30.01 in 10.0 mi WNW 3.5 mph - N/A   Overcast
6:53 PM 55.0 °F 41.0 °F 59% 30.03 in 10.0 mi West 4.6 mph - N/A   Overcast
7:53 PM 52.0 °F 39.9 °F 63% 30.04 in 10.0 mi WNW 5.8 mph - N/A   Clear
8:53 PM 48.9 °F 39.9 °F 71% 30.06 in 10.0 mi Calm Calm - N/A   Clear
9:53 PM 45.0 °F 41.0 °F 86% 30.06 in 10.0 mi Calm Calm - N/A   Clear
10:53 PM 44.1 °F 39.9 °F 85% 30.07 in 10.0 mi Calm Calm - N/A   Clear
11:53 PM 43.0 °F 39.0 °F 86% 30.07 in 10.0 mi Calm Calm - N/A   Clear